• In Deutschland
  • Länderverzeichnis
  • Für 7 Tage
  • Wassertemperatur
  • Satellitenkarten
  • Wetterkarte
  • Widgets
  • user-avatar
    Anmelden

    Stündliche Wetter Belize

    Heute, 17 August, Donnerstag

    Zeit Temperatur Niederschläge Wind Luftdruck Luftfeuchtigkeit
    00:00 +27°C° 0,6 mm 4 m/S 760 mmHg 97%
    01:00 +27°C° 0,8 mm 4 m/S 760 mmHg 98%
    02:00 +26°C° 0,8 mm 4 m/S 759 mmHg 98%
    03:00 +26°C° 0,8 mm 4 m/S 759 mmHg 98%
    04:00 +26°C° 0,9 mm 4 m/S 759 mmHg 98%
    05:00 +26°C° 0,9 mm 4 m/S 759 mmHg 98%
    06:00 +26°C° 0,9 mm 4 m/S 760 mmHg 98%
    07:00 +27°C° 1,1 mm 4 m/S 760 mmHg 96%
    08:00 +29°C° 1,1 mm 4 m/S 760 mmHg 94%
    09:00 +30°C° 1,1 mm 4 m/S 760 mmHg 91%
    10:00 +30°C° 1,5 mm 4 m/S 760 mmHg 88%
    11:00 +32°C° 1,5 mm 4 m/S 760 mmHg 85%
    12:00 +32°C° 1,5 mm 4 m/S 760 mmHg 82%
    13:00 +33°C° 0,4 mm 4 m/S 760 mmHg 74%
    14:00 +34°C° 0,4 mm 3 m/S 759 mmHg 66%
    15:00 +35°C° 0,4 mm 3 m/S 759 mmHg 59%
    16:00 +34°C° 0 mm 4 m/S 759 mmHg 66%
    17:00 +32°C° 0 mm 4 m/S 759 mmHg 73%
    18:00 +30°C° 0 mm 4 m/S 759 mmHg 80%
    19:00 +29°C° 0 mm 4 m/S 759 mmHg 86%
    20:00 +28°C° 0 mm 4 m/S 760 mmHg 91%
    21:00 +27°C° 0 mm 4 m/S 760 mmHg 96%
    22:00 +27°C° 0 mm 4 m/S 760 mmHg 97%
    23:00 +27°C° 0 mm 4 m/S 760 mmHg 97%

    Morgen, 18 August, Freitag

    Zeit Temperatur Niederschläge Wind Luftdruck Luftfeuchtigkeit
    00:00 +27°C° 0 mm 4 m/S 760 mmHg 97%
    01:00 +27°C° 0,1 mm 4 m/S 759 mmHg 98%
    02:00 +27°C° 0,1 mm 4 m/S 759 mmHg 98%
    03:00 +27°C° 0,1 mm 3 m/S 759 mmHg 98%
    04:00 +27°C° 0,1 mm 4 m/S 759 mmHg 98%
    05:00 +27°C° 0,1 mm 4 m/S 759 mmHg 98%
    06:00 +27°C° 0,1 mm 4 m/S 759 mmHg 98%
    07:00 +28°C° 0,1 mm 3 m/S 759 mmHg 91%
    08:00 +30°C° 0,1 mm 3 m/S 760 mmHg 84%
    09:00 +33°C° 0,1 mm 3 m/S 760 mmHg 77%
    10:00 +34°C° 0 mm 3 m/S 760 mmHg 66%
    11:00 +36°C° 0 mm 3 m/S 760 mmHg 56%
    12:00 +37°C° 0 mm 3 m/S 760 mmHg 45%
    13:00 +37°C° 0 mm 3 m/S 759 mmHg 46%
    14:00 +37°C° 0 mm 3 m/S 758 mmHg 48%
    15:00 +36°C° 0 mm 3 m/S 758 mmHg 49%
    16:00 +35°C° 0 mm 3 m/S 758 mmHg 59%
    17:00 +33°C° 0 mm 3 m/S 758 mmHg 69%
    18:00 +30°C° 0 mm 3 m/S 758 mmHg 79%
    19:00 +29°C° 0 mm 3 m/S 759 mmHg 85%
    20:00 +28°C° 0 mm 3 m/S 759 mmHg 91%
    21:00 +27°C° 0 mm 3 m/S 760 mmHg 97%
    22:00 +27°C° 0,1 mm 3 m/S 760 mmHg 97%
    23:00 +27°C° 0,1 mm 2 m/S 759 mmHg 98%

    übermorgen, 19 August, Samstag

    Zeit Temperatur Niederschläge Wind Luftdruck Luftfeuchtigkeit
    00:00 +27°C° 0,1 mm 2 m/S 759 mmHg 98%
    01:00 +27°C° 0,3 mm 2 m/S 759 mmHg 99%
    02:00 +27°C° 0,3 mm 2 m/S 759 mmHg 99%
    03:00 +27°C° 0,3 mm 2 m/S 758 mmHg 99%
    04:00 +27°C° 0,2 mm 2 m/S 758 mmHg 99%
    05:00 +27°C° 0,2 mm 2 m/S 758 mmHg 99%
    06:00 +26°C° 0,2 mm 2 m/S 758 mmHg 99%
    07:00 +28°C° 0,1 mm 2 m/S 759 mmHg 91%
    08:00 +30°C° 0,1 mm 2 m/S 759 mmHg 84%
    09:00 +32°C° 0,1 mm 2 m/S 759 mmHg 76%
    10:00 +34°C° 0,1 mm 2 m/S 759 mmHg 66%
    11:00 +36°C° 0,1 mm 2 m/S 759 mmHg 56%
    12:00 +37°C° 0,1 mm 3 m/S 759 mmHg 46%
    13:00 +37°C° 0 mm 3 m/S 758 mmHg 47%
    14:00 +37°C° 0 mm 3 m/S 757 mmHg 48%
    15:00 +37°C° 0 mm 4 m/S 757 mmHg 48%
    16:00 +35°C° 0,1 mm 4 m/S 757 mmHg 58%
    17:00 +33°C° 0,1 mm 4 m/S 757 mmHg 67%
    18:00 +32°C° 0,1 mm 4 m/S 757 mmHg 76%
    19:00 +30°C° 0,5 mm 4 m/S 758 mmHg 82%
    20:00 +29°C° 0,5 mm 4 m/S 758 mmHg 88%
    21:00 +27°C° 0,5 mm 4 m/S 759 mmHg 93%
    22:00 +27°C° 0,5 mm 4 m/S 759 mmHg 95%
    23:00 +27°C° 0,5 mm 4 m/S 758 mmHg 96%

    20 August, Sonntag

    Zeit Temperatur Niederschläge Wind Luftdruck Luftfeuchtigkeit
    00:00 +27°C° 0,5 mm 3 m/S 758 mmHg 98%
    01:00 +26°C° 0,5 mm 3 m/S 758 mmHg 98%
    02:00 +26°C° 0,5 mm 3 m/S 758 mmHg 98%
    03:00 +26°C° 0,5 mm 3 m/S 758 mmHg 98%
    04:00 +26°C° 0,5 mm 2 m/S 758 mmHg 99%
    05:00 +26°C° 0,5 mm 2 m/S 758 mmHg 99%
    06:00 +26°C° 0,5 mm 2 m/S 758 mmHg 99%
    07:00 +28°C° 1,3 mm 2 m/S 758 mmHg 92%
    08:00 +29°C° 1,3 mm 1 m/S 759 mmHg 85%
    09:00 +31°C° 1,3 mm 1 m/S 759 mmHg 78%
    10:00 +31°C° 1,2 mm 2 m/S 759 mmHg 80%
    11:00 +31°C° 1,2 mm 2 m/S 758 mmHg 82%
    12:00 +31°C° 1,2 mm 2 m/S 758 mmHg 84%
    13:00 +32°C° 0,1 mm 2 m/S 757 mmHg 78%
    14:00 +32°C° 0,1 mm 2 m/S 757 mmHg 71%
    15:00 +34°C° 0,1 mm 3 m/S 757 mmHg 64%
    16:00 +33°C° 0,1 mm 3 m/S 757 mmHg 70%
    17:00 +31°C° 0,1 mm 3 m/S 757 mmHg 77%
    18:00 +30°C° 0,1 mm 3 m/S 758 mmHg 83%
    19:00 +29°C° 0 mm 3 m/S 758 mmHg 87%
    20:00 +28°C° 0 mm 3 m/S 758 mmHg 92%
    21:00 +27°C° 0 mm 3 m/S 759 mmHg 96%
    22:00 +27°C° 0 mm 3 m/S 759 mmHg 97%
    23:00 +27°C° 0 mm 3 m/S 758 mmHg 97%

    21 August, Montag

    Zeit Temperatur Niederschläge Wind Luftdruck Luftfeuchtigkeit
    00:00 +27°C° 0 mm 3 m/S 758 mmHg 98%
    01:00 +27°C° 0,5 mm 3 m/S 758 mmHg 98%
    02:00 +27°C° 0,5 mm 3 m/S 758 mmHg 98%
    03:00 +26°C° 0,5 mm 3 m/S 758 mmHg 99%
    04:00 +26°C° 0,6 mm 3 m/S 758 mmHg 99%
    05:00 +26°C° 0,6 mm 3 m/S 758 mmHg 99%
    06:00 +26°C° 0,6 mm 4 m/S 759 mmHg 99%
    07:00 +27°C° 1,6 mm 4 m/S 759 mmHg 98%
    08:00 +28°C° 1,6 mm 4 m/S 759 mmHg 96%
    09:00 +29°C° 1,6 mm 4 m/S 759 mmHg 94%
    10:00 +29°C° 1,2 mm 4 m/S 759 mmHg 94%
    11:00 +29°C° 1,2 mm 5 m/S 758 mmHg 94%
    12:00 +29°C° 1,2 mm 5 m/S 758 mmHg 94%
    13:00 +29°C° 1,3 mm 5 m/S 758 mmHg 95%
    14:00 +29°C° 1,3 mm 6 m/S 757 mmHg 95%
    15:00 +29°C° 1,3 mm 6 m/S 757 mmHg 96%
    16:00 +28°C° 1,1 mm 6 m/S 757 mmHg 96%
    17:00 +28°C° 1,1 mm 6 m/S 757 mmHg 97%
    18:00 +28°C° 1,1 mm 6 m/S 757 mmHg 97%
    19:00 +27°C° 0,9 mm 6 m/S 758 mmHg 98%
    20:00 +27°C° 0,9 mm 6 m/S 758 mmHg 98%
    21:00 +27°C° 0,9 mm 6 m/S 759 mmHg 98%
    22:00 +27°C° 1,1 mm 6 m/S 759 mmHg 98%
    23:00 +27°C° 1,1 mm 6 m/S 758 mmHg 98%

    22 August, Dienstag

    Zeit Temperatur Niederschläge Wind Luftdruck Luftfeuchtigkeit
    00:00 +27°C° 1,1 mm 6 m/S 758 mmHg 98%
    01:00 +27°C° 1,2 mm 6 m/S 758 mmHg 98%
    02:00 +27°C° 1,2 mm 5 m/S 758 mmHg 98%
    03:00 +27°C° 1,2 mm 5 m/S 758 mmHg 98%
    04:00 +27°C° 0,2 mm 5 m/S 758 mmHg 98%
    05:00 +27°C° 0,2 mm 5 m/S 758 mmHg 98%
    06:00 +27°C° 0,2 mm 4 m/S 759 mmHg 99%
    07:00 +29°C° 0 mm 4 m/S 759 mmHg 93%
    08:00 +30°C° 0 mm 4 m/S 759 mmHg 87%
    09:00 +32°C° 0 mm 4 m/S 760 mmHg 81%
    10:00 +33°C° 0 mm 4 m/S 759 mmHg 74%
    11:00 +34°C° 0 mm 4 m/S 759 mmHg 67%
    12:00 +35°C° 0 mm 4 m/S 759 mmHg 60%
    13:00 +35°C° 0 mm 4 m/S 758 mmHg 59%
    14:00 +35°C° 0 mm 4 m/S 758 mmHg 59%
    15:00 +35°C° 0 mm 4 m/S 757 mmHg 59%
    16:00 +34°C° 0 mm 3 m/S 758 mmHg 67%
    17:00 +31°C° 0 mm 3 m/S 758 mmHg 74%
    18:00 +30°C° 0 mm 3 m/S 758 mmHg 82%
    19:00 +29°C° 0,1 mm 3 m/S 759 mmHg 87%
    20:00 +28°C° 0,1 mm 3 m/S 759 mmHg 91%
    21:00 +27°C° 0,1 mm 3 m/S 759 mmHg 96%
    22:00 +27°C° 0,1 mm 3 m/S 759 mmHg 97%
    23:00 +27°C° 0,1 mm 3 m/S 759 mmHg 98%
    Mehr zeigen